This demonstration page uses our WeatherBlox Daily Observations layout. Learn more.

41.55636, -103.73856

Hourly Observations for May 10, 2018

Temp ( °F °C ) Dew Point ( °F °C ) Humidity (%) Winds ( mph kmh ) Pressure ( in mb ) Visibility ( mi km ) Precip ( " mm )
12:58 am 00:58 Clear 53 11.8 47 8.3 79 79 E 15 24 29.91 1013 10 16.0934 N/A
1:58 am 01:58 Clear 51 10.6 45 7.3 80 80 SE 13 20 29.89 1012 10 16.0934 N/A
2:58 am 02:58 Clear 49 9.3 44 6.7 84 84 SE 12 19 29.87 1012 10 16.0934 N/A
3:58 am 03:58 Clear 49 9.3 43 6.1 81 81 SSE 12 19 29.86 1011 10 16.0934 N/A
4:58 am 04:58 Clear 48 9.1 41 5.2 77 77 SSE 7 11 29.86 1011 10 16.0934 N/A
5:58 am 05:58 Mostly Cloudy 47 8.1 41 5 81 81 E 3 6 29.85 1011 10 16.0934 0 0
6:58 am 06:58 Partly Cloudy 50 10.1 43 6.2 77 77 S 5 7 29.86 1011 10 16.0934 N/A
7:58 am 07:58 Mostly Sunny 53 11.4 44 6.8 74 74 S 6 9 29.85 1011 10 16.0934 N/A
8:58 am 08:58 Mostly Sunny 54 12.2 46 7.5 73 73 S 8 13 29.84 1010 10 16.0934 N/A
9:58 am 09:58 Sunny 60 15.3 48 8.7 65 65 SSE 8 13 29.82 1010 10 16.0934 N/A
10:58 am 10:58 Sunny 66 18.8 49 9.3 54 54 SSE 10 17 29.79 1009 10 16.0934 N/A
11:58 am 11:58 Sunny 69 20.4 49 9.2 49 49 SSE 10 17 29.77 1008 10 16.0934 N/A
12:58 pm 12:58 Sunny 74 23.6 47 8.2 37 37 S 13 20 29.72 1006 10 16.0934 N/A
1:58 pm 13:58 Sunny 78 25.4 46 7.6 32 32 SSE 7 11 29.7 1006 10 16.0934 N/A
2:58 pm 14:58 Sunny 80 26.9 45 7.1 28 28 S 15 24 29.65 1004 10 16.0934 N/A
3:58 pm 15:58 Mostly Sunny 70 20.9 53 11.5 55 55 NNW 31 50 29.67 1005 10 16.0934 N/A
4:58 pm 16:58 Sunny 68 20 51 10.6 55 55 N 32 52 29.66 1005 10 16.0934 N/A
5:58 pm 17:58 Sunny 68 19.9 51 10.3 54 54 N 24 39 29.66 1005 10 16.0934 N/A
6:58 pm 18:58 Sunny 65 18.2 51 10.3 60 60 N 21 33 29.68 1005 10 16.0934 N/A
7:58 pm 19:58 Sunny 58 14.4 52 11.3 82 82 NNE 25 41 29.73 1007 10 16.0934 N/A
8:58 pm 20:58 Mostly Cloudy 53 11.4 49 9.6 89 89 N 25 41 29.8 1009 10 16.0934 N/A
9:58 pm 21:58 Cloudy 50 9.8 48 8.8 94 94 N 20 31 29.8 1009 9 14.48406 N/A
10:58 pm 22:58 Cloudy with Mist and Fog 48 8.8 46 8 95 95 N 20 31 29.77 1008 2.25 3.621015 N/A
11:58 pm 23:58 Cloudy with Mist and Fog 46 7.7 45 7 95 95 NNE 15 24 29.78 1008 2 3.21868 N/A

Powered by AerisWeather